Starlink 3669

operational
NORAD ID: 51971 Int'l Des: 2022-025 Owner: SPXS Country: US Constellation: starlink
LEOCIRCULARSTARLINK_TYPE

Über Starlink 3669

Beschreibung wird geladen...

Live-Position

3D-Globus wird geladen...

Nächste Überflüge

Höhenverlauf

Altitude vs Time

uPlot chart will show altitude changes over time

Zweizeiliger Elementsatz

1 51971U 22025R 26034.42944425 .00000108 00000-0 26156-4 0 9996
2 51971 53.0572 180.6812 0001255 83.6724 276.4408 15.06394198215810
Epoch: 3. Feb. 2026 • Age: 17 hours

Aktueller Status

Höhe 563.1 km
Geschwindigkeit 7.58 km/s
Subsatellitenpunkt -44.60°S, 138.73°W
Startdatum 9. März 2022
Alter 3.9 years
Typ internet

Technische Details

Klassifizierung Payload
Masse 297.00 kg
Trockenmasse 275.00 kg
Gesamtmasse 297.00 kg
Länge 0.20 m
Durchmesser 2.80 m
Spannweite 9.00 m
Form Box + pan
Hersteller SPXS
Bus-Typ Starlink
Phasenstatus In Orbit
Besitzer/Staat SPXS/US

Große Konstellationen

Loading constellations...